Location: Briis
(48.6240°N, 2.1211°E)
Time: 01:14:22
(UTC+00:00)

Cosmos 2233 Rocket - Pass Details

Date: 25 September 2020
Orbit: 952 x 991 km, 82.9° (Epoch: 23 October)

Event Time Altitude Azimuth Distance (km) Brightness Sun altitude
Rises 04:28:08 0° 352° (N) 3,643 7.1 -13.1°
Reaches altitude 10° 04:30:40 10° 355° (N) 2,692 6.4 -12.6°
Maximum altitude 04:36:47 68° 78° (ENE) 1,023 4.4 -11.7°
Drops below altitude 10° 04:42:54 10° 162° (SSE) 2,680 6.4 -10.7°
Sets 04:45:24 0° 165° (SSE) 3,626 7.1 -10.3°
